Preview of NWS' New Version of Forecast
This preview is not operational and should not be used for support decisions.

Regional Weather Roundup (RWR)

Issued by National Weather Service (NWS)

                            
000
ASCA42 TJSJ 182010
RWRPR 
PUERTO RICO/U.S. VIRGIN ISLANDS HOURLY WEATHER ROUNDUP
NATIONAL WEATHER SERVICE SAN JUAN PR
400 PM AST SAT MAY 18 2019

PRZ001>002-007>008-010-182100-
PUERTO RICO
  
CITY           SKY/WX    TMP DP  RH WIND       PRES   REMARKS
SAN JUAN LMM   MOSUNNY   86  73  66 NE17      29.91F HX  93           
AGUADILLA      CLOUDY    81  73  78 E8        29.94F                  
CEIBA          SUNNY     88  73  62 E17       29.94F HX  96           
$$

VIZ001>002-182100-
U.S. VIRGIN ISLANDS
  
CITY           SKY/WX    TMP DP  RH WIND       PRES   REMARKS
CHARLOTTE AMA  SUNNY     84  72  65 SE14      29.93F                  
CHRISTIANSTED  MOSUNNY   82  72  69 E12       29.94F                  
$$

HOURLY WEATHER ROUNDUP FOR THE NEWS MEDIA
  
CITY           SKY/WX    TMP DP  RH WIND       PRES   REMARKS
ORLANDO        FAIR      86  52  30 E10G18    30.00F                  
NEW YORK       PTSUNNY   65  49  56 S13       30.00F                  
NEWARK         PTSUNNY   78  39  24 VRB5      29.96F                  
CHICAGO        LGT RAIN  68  62  81 SE7       29.78                   
HARTFORD       FAIR      66  43  43 S14       29.96R                  
BOSTON         FAIR      63  45  51 E18       29.94S                  
DALLAS         CLOUDY    69  65  86 SE6       29.62  THUNDER          
PHILADELPHIA   FAIR      77  50  38 SW10      29.98F                  
LOS ANGELES    PTSUNNY   68  51  54 W10       29.97F                  
WASHINGTON DC  FAIR      84  64  50 S5        29.95F